Torna al catalogo

LEMUR 2 JEROEN

LostScienzaLEO
NORAD 40934·PAYLOAD·🇺🇸 United States

Lanciato Sep 28, 2015 da Satish Dhawan Space Centre

Loading…

Prossimi Passaggi (prossime 24 ore)

TLE

ObsoletoSource: Space-Track

Epoca: Jan 4, 2024, 11:16 UTC

1 40934U 15052E   24004.46951125  .00005017  00000-0  51754-3 0  9994
2 40934   6.0073  50.3046 0009895 338.4222  21.5489 14.83222395447206

Traccia LEMUR 2 JEROEN in tempo reale con AllMySat

Download on the App Store